User: anonymous   Login
Location: Unspecified
(0.0000°N, 0.0000°E)
Time: 20:37:05
(UTC+00:00)
Language:

FAST 2 (USA 228) - Orbit

View from above orbital plane
View from above orbital plane
View from above satellite
View from above satellite

Ground track
Ground track

The orbit data is extracted from the following two-line orbital elements,

1 37380U 10062M   17194.05764620 0.00000400  00000-0  54426-4 0    04
2 37380  71.9730 181.6834 0010309  97.3136 262.6863 14.78684226    04
Epoch (UTC): 13 July 2017 01:23:00
Eccentricity: 0.0010309
inclination: 71.9730°
perigee height: 626 km
apogee height: 641 km
right ascension of ascending node: 181.6834°
argument of perigee: 97.3136°
revolutions per day: 14.78684226
mean anomaly at epoch: 262.6863°
orbit number at epoch: 0

The dashed part of the orbit path shows where the satellite is in the earth's shadow,  

DLR